Time,TemperatureF,DewpointF,PressureIn,WindDirection,WindDirectionDegrees,WindSpeedMPH,WindSpeedGustMPH,Humidity,HourlyPrecipIn,Conditions,Clouds,dailyrainin,SoftwareType,DateUTC
2013-04-25 00:05:00,41.7,32.6,29.87,SSW,202,9.9,-999.0,70,-99.99,,,0.00,Acu-Link.com,2013-04-25 05:05:00,
2013-04-25 00:20:00,42.4,32.6,29.86,SSW,202,11.4,-999.0,68,-99.99,,,0.00,Acu-Link.com,2013-04-25 05:20:00,
2013-04-25 00:35:00,42.4,33.3,29.86,SSW,202,7.3,-999.0,70,-99.99,,,0.00,Acu-Link.com,2013-04-25 05:35:00,
2013-04-25 00:51:00,42.4,33.3,29.85,SSW,202,6.3,-999.0,70,-99.99,,,0.00,Acu-Link.com,2013-04-25 05:51:00,
2013-04-25 01:06:00,42.4,33.7,29.85,SSW,202,7.8,-999.0,71,-99.99,,,0.00,Acu-Link.com,2013-04-25 06:06:00,
2013-04-25 01:21:00,42.4,34.4,29.85,SW,225,11.9,-999.0,73,-99.99,,,0.00,Acu-Link.com,2013-04-25 06:21:00,
2013-04-25 01:36:00,42.1,34.8,29.84,SW,225,8.3,-999.0,75,-99.99,,,0.00,Acu-Link.com,2013-04-25 06:36:00,
2013-04-25 01:51:00,42.1,36.1,29.84,SSW,202,4.2,-999.0,79,-99.99,,,0.00,Acu-Link.com,2013-04-25 06:51:00,
2013-04-25 02:07:00,42.3,41.2,29.85,West,270,11.9,-999.0,96,-99.99,,,0.00,Acu-Link.com,2013-04-25 07:07:00,
2013-04-25 02:22:00,40.8,40.5,29.84,WSW,247,9.4,-999.0,99,-99.99,,,0.00,Acu-Link.com,2013-04-25 07:22:00,
2013-04-25 02:37:00,41.0,40.7,29.84,SW,225,6.8,-999.0,99,-99.99,,,0.00,Acu-Link.com,2013-04-25 07:37:00,
2013-04-25 02:52:00,40.6,40.3,29.84,SW,225,7.8,-999.0,99,-99.99,,,0.00,Acu-Link.com,2013-04-25 07:52:00,
2013-04-25 03:07:00,41.0,40.7,29.83,West,270,9.9,-999.0,99,-99.99,,,0.00,Acu-Link.com,2013-04-25 08:07:00,
2013-04-25 03:23:00,41.2,40.9,29.83,SW,225,8.9,-999.0,99,-99.99,,,0.00,Acu-Link.com,2013-04-25 08:23:00,
2013-04-25 03:38:00,40.8,40.5,29.83,SW,225,8.3,-999.0,99,-99.99,,,0.00,Acu-Link.com,2013-04-25 08:38:00,
2013-04-25 03:53:00,40.5,40.2,29.83,SW,225,9.9,-999.0,99,-99.99,,,0.00,Acu-Link.com,2013-04-25 08:53:00,
2013-04-25 04:08:00,40.1,39.8,29.83,WSW,247,6.3,-999.0,99,-99.99,,,0.00,Acu-Link.com,2013-04-25 09:08:00,
2013-04-25 04:23:00,40.3,40.0,29.83,SW,225,5.3,-999.0,99,-99.99,,,0.00,Acu-Link.com,2013-04-25 09:23:00,
2013-04-25 04:38:00,40.1,39.8,29.84,West,270,11.9,-999.0,99,-99.99,,,0.00,Acu-Link.com,2013-04-25 09:38:00,
2013-04-25 04:54:00,40.5,40.2,29.84,WSW,247,9.9,-999.0,99,-99.99,,,0.00,Acu-Link.com,2013-04-25 09:54:00,
2013-04-25 05:09:00,40.1,39.8,29.85,West,270,5.8,-999.0,99,-99.99,,,0.00,Acu-Link.com,2013-04-25 10:09:00,
2013-04-25 05:24:00,40.1,39.8,29.85,WSW,247,8.3,-999.0,99,-99.99,,,0.00,Acu-Link.com,2013-04-25 10:24:00,
2013-04-25 05:39:00,40.1,39.8,29.85,WSW,247,8.3,-999.0,99,-99.99,,,0.00,Acu-Link.com,2013-04-25 10:39:00,
2013-04-25 05:55:00,40.1,39.8,29.87,West,270,5.8,-999.0,99,-99.99,,,0.00,Acu-Link.com,2013-04-25 10:55:00,
2013-04-25 06:10:00,39.7,39.4,29.86,West,270,5.3,-999.0,99,-99.99,,,0.00,Acu-Link.com,2013-04-25 11:10:00,
2013-04-25 06:55:00,39.7,39.4,29.88,West,270,5.8,-999.0,99,-99.99,,,0.00,Acu-Link.com,2013-04-25 11:55:00,
2013-04-25 07:11:00,39.9,39.6,29.89,WNW,292,4.7,-999.0,99,-99.99,,,0.00,Acu-Link.com,2013-04-25 12:11:00,
2013-04-25 07:26:00,39.9,39.6,29.90,West,270,10.4,-999.0,99,-99.99,,,0.00,Acu-Link.com,2013-04-25 12:26:00,
2013-04-25 07:41:00,39.6,39.3,29.91,WSW,247,9.4,-999.0,99,-99.99,,,0.00,Acu-Link.com,2013-04-25 12:41:00,
2013-04-25 07:56:00,39.2,38.9,29.92,WNW,292,7.8,-999.0,99,-99.99,,,0.00,Acu-Link.com,2013-04-25 12:56:00,
2013-04-25 08:11:00,41.0,40.7,29.93,West,270,0.0,-999.0,99,-99.99,,,0.00,Acu-Link.com,2013-04-25 13:11:00,
2013-04-25 08:27:00,42.1,41.8,29.94,West,270,8.3,-999.0,99,-99.99,,,0.00,Acu-Link.com,2013-04-25 13:27:00,
2013-04-25 08:42:00,43.0,41.4,29.94,SW,225,7.8,-999.0,94,-99.99,,,0.00,Acu-Link.com,2013-04-25 13:42:00,
2013-04-25 08:57:00,43.9,39.1,29.95,West,270,9.9,-999.0,83,-99.99,,,0.00,Acu-Link.com,2013-04-25 13:57:00,
2013-04-25 09:13:00,43.0,42.7,29.95,West,270,7.8,-999.0,99,-99.99,,,0.00,Acu-Link.com,2013-04-25 14:13:00,
2013-04-25 09:28:00,44.8,38.0,29.96,West,270,9.4,-999.0,77,-99.99,,,0.00,Acu-Link.com,2013-04-25 14:28:00,
2013-04-25 09:43:00,44.6,37.2,29.97,West,270,11.4,-999.0,75,-99.99,,,0.00,Acu-Link.com,2013-04-25 14:43:00,
2013-04-25 09:58:00,46.9,36.1,29.97,West,270,7.3,-999.0,66,-99.99,,,0.00,Acu-Link.com,2013-04-25 14:58:00,
2013-04-25 10:13:00,47.7,38.8,29.98,NW,315,6.8,-999.0,71,-99.99,,,0.00,Acu-Link.com,2013-04-25 15:13:00,
2013-04-25 10:29:00,46.9,37.3,29.99,WSW,247,8.3,-999.0,69,-99.99,,,0.00,Acu-Link.com,2013-04-25 15:29:00,
2013-04-25 10:44:00,47.3,37.7,30.00,West,270,6.8,-999.0,69,-99.99,,,0.00,Acu-Link.com,2013-04-25 15:44:00,
2013-04-25 10:59:00,48.6,39.3,30.00,West,270,6.3,-999.0,70,-99.99,,,0.00,Acu-Link.com,2013-04-25 15:59:00,
2013-04-25 11:15:00,49.1,37.5,30.01,West,270,4.2,-999.0,64,-99.99,,,0.00,Acu-Link.com,2013-04-25 16:15:00,
2013-04-25 11:30:00,48.4,37.6,30.02,WSW,247,10.9,-999.0,66,-99.99,,,0.00,Acu-Link.com,2013-04-25 16:30:00,
2013-04-25 11:45:00,46.9,35.4,30.02,WNW,292,8.3,-999.0,64,-99.99,,,0.00,Acu-Link.com,2013-04-25 16:45:00,
2013-04-25 12:00:00,46.9,36.5,30.02,WNW,292,7.3,-999.0,67,-99.99,,,0.00,Acu-Link.com,2013-04-25 17:00:00,
2013-04-25 12:15:00,47.1,35.6,30.03,SSW,202,10.4,-999.0,64,-99.99,,,0.00,Acu-Link.com,2013-04-25 17:15:00,
2013-04-25 12:31:00,47.3,34.5,30.04,West,270,0.0,-999.0,61,-99.99,,,0.00,Acu-Link.com,2013-04-25 17:31:00,
2013-04-25 12:46:00,50.4,35.7,30.04,West,270,8.3,-999.0,57,-99.99,,,0.00,Acu-Link.com,2013-04-25 17:46:00,
2013-04-25 13:01:00,49.1,34.5,30.04,West,270,2.2,-999.0,57,-99.99,,,0.00,Acu-Link.com,2013-04-25 18:01:00,
2013-04-25 13:16:00,48.4,34.3,30.04,West,270,8.9,-999.0,58,-99.99,,,0.00,Acu-Link.com,2013-04-25 18:16:00,
2013-04-25 13:32:00,52.9,35.3,30.05,SW,225,7.8,-999.0,51,-99.99,,,0.00,Acu-Link.com,2013-04-25 18:32:00,
2013-04-25 13:47:00,48.9,33.0,30.06,West,270,4.2,-999.0,54,-99.99,,,0.00,Acu-Link.com,2013-04-25 18:47:00,
2013-04-25 14:02:00,50.0,33.6,30.06,West,270,10.9,-999.0,53,-99.99,,,0.00,Acu-Link.com,2013-04-25 19:02:00,
2013-04-25 14:17:00,49.5,32.6,30.06,West,270,0.0,-999.0,52,-99.99,,,0.00,Acu-Link.com,2013-04-25 19:17:00,
2013-04-25 14:33:00,48.7,32.8,30.07,West,270,5.8,-999.0,54,-99.99,,,0.00,Acu-Link.com,2013-04-25 19:33:00,
2013-04-25 14:48:00,50.5,32.6,30.08,West,270,11.4,-999.0,50,-99.99,,,0.00,Acu-Link.com,2013-04-25 19:48:00,
2013-04-25 15:03:00,52.2,32.6,30.06,West,270,6.3,-999.0,47,-99.99,,,0.00,Acu-Link.com,2013-04-25 20:03:00,
2013-04-25 15:18:00,49.8,31.4,30.06,West,270,6.3,-999.0,49,-99.99,,,0.00,Acu-Link.com,2013-04-25 20:18:00,
2013-04-25 15:34:00,53.4,34.7,30.06,SW,225,6.3,-999.0,49,-99.99,,,0.00,Acu-Link.com,2013-04-25 20:34:00,
2013-04-25 15:49:00,51.1,33.1,30.06,SW,225,5.3,-999.0,50,-99.99,,,0.00,Acu-Link.com,2013-04-25 20:49:00,
2013-04-25 16:04:00,53.8,32.4,30.06,West,270,6.3,-999.0,44,-99.99,,,0.00,Acu-Link.com,2013-04-25 21:04:00,
2013-04-25 16:19:00,54.0,34.8,30.07,West,270,4.7,-999.0,48,-99.99,,,0.00,Acu-Link.com,2013-04-25 21:19:00,
2013-04-25 16:34:00,53.2,31.9,30.06,SSW,202,6.8,-999.0,44,-99.99,,,0.00,Acu-Link.com,2013-04-25 21:34:00,
2013-04-25 16:50:00,52.2,31.0,30.07,West,270,6.3,-999.0,44,-99.99,,,0.00,Acu-Link.com,2013-04-25 21:50:00,
2013-04-25 17:05:00,50.9,31.4,30.06,SW,225,3.2,-999.0,47,-99.99,,,0.00,Acu-Link.com,2013-04-25 22:05:00,
2013-04-25 17:20:00,52.2,32.1,30.07,West,270,0.0,-999.0,46,-99.99,,,0.00,Acu-Link.com,2013-04-25 22:20:00,
2013-04-25 17:35:00,50.2,30.2,30.07,West,270,5.8,-999.0,46,-99.99,,,0.00,Acu-Link.com,2013-04-25 22:35:00,
2013-04-25 17:51:00,52.0,31.3,30.07,WSW,247,0.0,-999.0,45,-99.99,,,0.00,Acu-Link.com,2013-04-25 22:51:00,
2013-04-25 18:06:00,51.3,30.7,30.07,West,270,0.0,-999.0,45,-99.99,,,0.00,Acu-Link.com,2013-04-25 23:06:00,
2013-04-25 18:21:00,50.9,30.9,30.08,West,270,4.7,-999.0,46,-99.99,,,0.00,Acu-Link.com,2013-04-25 23:21:00,
2013-04-25 18:37:00,51.3,31.2,30.08,West,270,2.7,-999.0,46,-99.99,,,0.00,Acu-Link.com,2013-04-25 23:37:00,
2013-04-25 18:52:00,50.7,31.2,30.08,West,270,4.7,-999.0,47,-99.99,,,0.00,Acu-Link.com,2013-04-25 23:52:00,
2013-04-25 19:07:00,49.3,32.9,30.08,SW,225,5.3,-999.0,53,-99.99,,,0.00,Acu-Link.com,2013-04-26 00:07:00,
2013-04-25 19:22:00,47.5,33.0,30.08,SW,225,0.0,-999.0,57,-99.99,,,0.00,Acu-Link.com,2013-04-26 00:22:00,
2013-04-25 19:53:00,43.9,31.7,30.09,SSW,202,0.0,-999.0,62,-99.99,,,0.00,Acu-Link.com,2013-04-26 00:53:00,
2013-04-25 20:08:00,42.3,31.4,30.09,SW,225,0.0,-999.0,65,-99.99,,,0.00,Acu-Link.com,2013-04-26 01:08:00,
2013-04-25 20:23:00,41.5,31.4,30.09,SSW,202,0.0,-999.0,67,-99.99,,,0.00,Acu-Link.com,2013-04-26 01:23:00,
2013-04-25 20:39:00,40.5,31.8,30.09,SSW,202,0.0,-999.0,71,-99.99,,,0.00,Acu-Link.com,2013-04-26 01:39:00,
2013-04-25 20:54:00,38.5,34.4,30.10,WSW,247,0.0,-999.0,85,-99.99,,,0.00,Acu-Link.com,2013-04-26 01:54:00,
2013-04-25 21:09:00,36.3,34.5,30.11,West,270,0.0,-999.0,93,-99.99,,,0.00,Acu-Link.com,2013-04-26 02:09:00,
2013-04-25 21:25:00,34.7,34.4,30.12,West,270,0.0,-999.0,99,-99.99,,,0.00,Acu-Link.com,2013-04-26 02:25:00,
2013-04-25 21:40:00,33.3,33.0,30.12,West,270,0.0,-999.0,99,-99.99,,,0.00,Acu-Link.com,2013-04-26 02:40:00,
2013-04-25 21:55:00,32.0,31.8,30.13,West,270,0.0,-999.0,99,-99.99,,,0.00,Acu-Link.com,2013-04-26 02:55:00,
2013-04-25 22:10:00,31.3,31.1,30.13,West,270,0.0,-999.0,99,-99.99,,,0.00,Acu-Link.com,2013-04-26 03:10:00,
2013-04-25 22:25:00,30.9,30.7,30.14,West,270,0.0,-999.0,99,-99.99,,,0.00,Acu-Link.com,2013-04-26 03:25:00,
2013-04-25 22:41:00,30.7,30.5,30.14,West,270,0.0,-999.0,99,-99.99,,,0.00,Acu-Link.com,2013-04-26 03:41:00,
2013-04-25 22:56:00,30.7,30.5,30.14,West,270,0.0,-999.0,99,-99.99,,,0.00,Acu-Link.com,2013-04-26 03:56:00,
2013-04-25 23:11:00,31.3,31.1,30.14,West,270,0.0,-999.0,99,-99.99,,,0.00,Acu-Link.com,2013-04-26 04:11:00,
2013-04-25 23:26:00,32.2,32.0,30.14,West,270,0.0,-999.0,99,-99.99,,,0.00,Acu-Link.com,2013-04-26 04:26:00,
2013-04-25 23:41:00,31.3,31.1,30.14,West,270,0.0,-999.0,99,-99.99,,,0.00,Acu-Link.com,2013-04-26 04:41:00,
2013-04-25 23:57:00,30.0,29.8,30.14,WNW,292,0.0,-999.0,99,-99.99,,,0.00,Acu-Link.com,2013-04-26 04:57:00,